Weather History for Champaign, IL

Change the Weather History Date:

Thursday, December 22, 2011

  Actual Average Record
Temperature  
Mean Temperature 35 °F 27 °F  
Max Temperature 40 °F 34 °F 53 °F (2006)
Min Temperature 29 °F 20 °F -4 °F (2000)
Degree Days  
Heating Degree Days 30 38  
Month to date heating degree days 628 769  
Since 1 July heating degree days 1643 1933  
Cooling Degree Days 0 0  
Month to date cooling degree days 0 0  
Year to date cooling degree days 1222 945  
Moisture  
Dew Point 32 °F    
Average Humidity 93    
Maximum Humidity 100    
Minimum Humidity 85    
Precipitation  
Precipitation T in 0.09 in 0.68 in (2003)
Month to date precipitation 2.13 1.70  
Year to date precipitation 32.11 38.90  
Sea Level Pressure  
Sea Level Pressure 30.07 in    
Wind  
Wind Speed 6 mph (WSW)    
Max Wind Speed 17 mph    
Max Gust Speed 23 mph    
Visibility 3 miles    
Events Fog    
T = Trace of Precipitation, MM = Missing Value Source: NWS Daily Summary

Daily Weather History Graph

Daily Weather History Graph

Search for Another Location

Airport:

Trip Planner

Search our weather history database for the weather conditions in past years. The results will help you decide how hot, cold, wet, or windy it might be!

Date:

Astronomy

Dec. 22, 2011 Rise Set
Actual Time 7:11 AM CST 4:31 PM CST
Civil Twilight 6:41 AM CST 5:02 PM CST
Nautical Twilight 6:07 AM CST 5:36 PM CST
Astronomical Twilight 5:34 AM CST 6:09 PM CST
Moon 4:55 AM CST (12/22) 2:41 PM CST (12/22)
Length of Visible Light 10h 20m
Length of Day
9h 19m
Waning Crescent, 5% of the Moon is Illuminated
Dec 22
Waning Crescent
Dec 24
New
Jan 1
First Quarter
Jan 9
Full
Jan 16
Last Quarter

Hourly Weather History & Observations

Time (CST) Temp. Windchill Dew Point Humidity Pressure Visibility Wind Dir Wind Speed Gust Speed Precip Events Conditions
12:53 AM 33.1 °F 27.7 °F 30.9 °F 92% 30.02 in 3.0 mi SSW 5.8 mph - N/A   Clear
1:30 AM 33.8 °F 28.6 °F 32.0 °F 93% 30.02 in 5.0 mi SW 5.8 mph - N/A   Mostly Cloudy
1:53 AM 33.1 °F 30.0 °F 32.0 °F 96% 30.03 in 4.0 mi SW 3.5 mph - N/A   Mostly Cloudy
2:24 AM 33.8 °F 28.6 °F 30.2 °F 87% 30.03 in 2.5 mi WSW 5.8 mph - N/A   Clear
2:35 AM 33.8 °F 28.6 °F 30.2 °F 87% 30.03 in 3.0 mi SW 5.8 mph - N/A   Clear
2:42 AM 32.0 °F 27.5 °F 30.2 °F 93% 30.03 in 2.5 mi SW 4.6 mph - N/A   Clear
2:53 AM 32.0 °F 27.5 °F 30.0 °F 92% 30.05 in 1.8 mi SSW 4.6 mph - N/A   Clear
3:00 AM 32.0 °F 26.4 °F 30.2 °F 93% 30.04 in 2.5 mi SSW 5.8 mph - N/A   Clear
3:18 AM 32.0 °F 24.8 °F 30.2 °F 93% 30.03 in 1.0 mi South 8.1 mph - N/A   Mist
3:24 AM 32.0 °F 25.6 °F 30.2 °F 93% 30.03 in 0.2 mi South 6.9 mph - N/A Fog Fog
3:53 AM 33.1 °F 26.9 °F 32.0 °F 96% 30.06 in 0.2 mi SSW 6.9 mph - N/A Fog Fog
4:00 AM 33.8 °F 28.6 °F 32.0 °F 93% 30.04 in 0.8 mi SSW 5.8 mph - N/A   Mostly Cloudy
4:03 AM 33.8 °F 29.6 °F 32.0 °F 93% 30.04 in 1.0 mi SSW 4.6 mph - N/A   Mostly Cloudy
4:10 AM 33.8 °F 30.8 °F 32.0 °F 93% 30.03 in 2.0 mi WSW 3.5 mph - N/A   Scattered Clouds
4:25 AM 33.8 °F 29.6 °F 32.0 °F 93% 30.04 in 1.2 mi SW 4.6 mph - N/A   Clear
4:34 AM 33.8 °F 29.6 °F 30.2 °F 87% 30.04 in 0.8 mi SW 4.6 mph - N/A   Clear
4:53 AM 33.1 °F - 30.9 °F 92% 30.06 in 0.8 mi Calm Calm - N/A   Clear
5:09 AM 32.0 °F 28.7 °F 30.2 °F 93% 30.04 in 2.0 mi WSW 3.5 mph - N/A   Clear
5:28 AM 30.2 °F - 28.4 °F 93% 30.01 in 1.5 mi Calm Calm - N/A   Clear
5:37 AM 30.2 °F - 28.4 °F 93% 30.02 in 0.2 mi Calm Calm - N/A Fog Light Freezing Fog
5:51 AM 30.2 °F - 28.4 °F 93% 30.03 in 0.2 mi Calm Calm - N/A Fog Light Freezing Fog
5:53 AM 30.0 °F - 28.0 °F 92% 30.06 in 0.2 mi Calm Calm - N/A Fog Light Freezing Fog
6:12 AM 30.2 °F - 28.4 °F 93% 30.02 in 0.2 mi Calm Calm - N/A Fog Light Freezing Fog
6:38 AM 30.2 °F 24.3 °F 28.4 °F 93% 30.02 in 0.2 mi East 5.8 mph - N/A Fog Light Freezing Fog
6:53 AM 30.0 °F - 28.9 °F 96% 30.05 in 0.2 mi Calm Calm - N/A Fog Light Freezing Fog
7:06 AM 30.2 °F - 28.4 °F 93% 30.03 in 0.2 mi Calm Calm - N/A Fog Light Freezing Fog
7:14 AM 30.2 °F - 28.4 °F 93% 30.04 in 0.5 mi Calm Calm - N/A Fog Light Freezing Fog
7:23 AM 30.2 °F 26.7 °F 28.4 °F 93% 30.05 in 1.2 mi SSE 3.5 mph - N/A   Partly Cloudy
7:26 AM 30.2 °F 25.4 °F 28.4 °F 93% 30.06 in 3.0 mi SSE 4.6 mph - N/A   Partly Cloudy
7:53 AM 30.2 °F - 28.4 °F 93% 30.07 in 6.0 mi Calm Calm - N/A   Clear
8:53 AM 33.1 °F - 32.0 °F 96% 30.10 in 5.0 mi Calm Calm - N/A   Clear
9:53 AM 35.1 °F - 34.0 °F 96% 30.09 in 5.0 mi Calm Calm - N/A   Clear
10:53 AM 36.0 °F - 35.1 °F 97% 30.12 in 5.0 mi Calm Calm - N/A   Clear
11:53 AM 37.0 °F - 35.1 °F 93% 30.08 in 6.0 mi Calm Calm - N/A   Clear
12:53 PM 37.9 °F 35.5 °F 35.1 °F 89% 30.07 in 5.0 mi NW 3.5 mph - N/A   Clear
1:53 PM 39.2 °F - 35.6 °F 87% 30.06 in 5.0 mi Calm Calm - N/A   Clear
2:26 PM 39.2 °F 35.0 °F 35.6 °F 87% 30.04 in 5.0 mi NNW 5.8 mph - N/A   Scattered Clouds
2:53 PM 39.0 °F 36.8 °F 37.0 °F 93% 30.06 in 5.0 mi NNW 3.5 mph - N/A   Partly Cloudy
3:29 PM 39.2 °F 33.6 °F 35.6 °F 87% 30.06 in 6.0 mi NW 8.1 mph - N/A   Mostly Cloudy
3:53 PM 39.0 °F 33.4 °F 36.0 °F 89% 30.10 in 6.0 mi NW 8.1 mph - N/A   Mostly Cloudy
4:53 PM 37.9 °F 29.6 °F 35.1 °F 89% 30.09 in 7.0 mi NNW 13.8 mph - N/A   Overcast
6:53 PM 37.0 °F 28.5 °F 34.0 °F 89% 30.14 in 5.0 mi NNW 13.8 mph - N/A   Overcast
7:53 PM 37.0 °F 29.8 °F 35.1 °F 93% 30.18 in 4.0 mi North 10.4 mph - N/A   Overcast
8:53 PM 37.0 °F 28.5 °F 34.0 °F 89% 30.19 in 9.0 mi North 13.8 mph - N/A   Overcast
9:53 PM 36.0 °F 26.3 °F 33.1 °F 89% 30.21 in 7.0 mi North 16.1 mph - 0.00 in   Overcast
10:53 PM 35.1 °F 26.4 °F 32.0 °F 89% 30.23 in 6.0 mi NNW 12.7 mph - N/A   Overcast
11:53 PM 35.1 °F 26.4 °F 32.0 °F 89% 30.25 in 7.0 mi NNW 12.7 mph - N/A   Overcast